Location: Ebersheim
(48.3033°N, 7.4991°E)
Time: 08:06:31
(UTC+00:00)

Cosmos 1125 Rocket - Pass Details

Date: 27 February 2020
Orbit: 757 x 780 km, 74.0° (Epoch: 03 April)

Event Time Altitude Azimuth Distance (km) Brightness Sun altitude
Rises 19:24:29 0° 339° (NNW) 3,275 7.2 -23.0°
Reaches altitude 10° 19:26:56 10° 344° (NNW) 2,344 6.4 -23.4°
Enters shadow 19:31:59 55° 54° (NE) 941 3.7 -24.2°
